Theta_e
313 314 315 313 311 309 308 308 308 309 309 309 310 310 310 311 311 312 310 316 317 321 320 325 327 330 339 336 338 338 344 346 344 342 341 335 340 339 336 348 347 348 346 343 345
313 314 315 315 312 310 309 308 309 309 309 310 310 310 311 311 313 313 316 317 318 317 318 323 329 329 328 331 337 341 341 341 340 339 339 336 335 339 336 343 343 348 346 345 345
311 313 314 316 314 312 310 309 309 309 309 310 310 311 311 312 320 315 321 318 318 316 323 323 324 323 326 329 337 338 340 338 339 340 338 340 339 336 336 339 341 345 348 345 345
310 312 314 315 316 313 311 310 309 309 310 310 311 311 312 315 324 323 325 322 317 316 322 323 325 327 328 337 336 341 341 339 341 340 339 339 335 338 336 338 339 344 345 344 344
309 311 314 316 316 316 312 310 309 309 310 310 311 312 315 320 314 321 323 324 317 316 320 322 324 326 332 335 337 342 340 340 340 339 338 336 336 339 342 342 345 345 345 344 342
309 310 312 315 317 317 314 311 310 310 310 310 311 312 319 314 319 324 324 323 319 318 322 322 324 325 328 331 335 335 339 338 336 335 335 335 339 339 339 344 348 346 343 341 340
310 311 312 315 317 318 316 311 310 310 310 310 311 314 322 314 322 321 323 322 321 321 320 324 326 326 324 327 329 334 338 336 335 335 335 334 338 340 336 342 345 343 341 340 339
310 312 313 315 317 319 317 312 310 310 310 311 311 318 314 318 320 320 321 321 320 320 323 326 327 325 326 328 329 331 334 336 333 334 333 333 338 342 337 340 343 342 341 341 338
311 312 314 316 318 319 317 312 310 310 312 313 315 323 317 322 324 322 322 322 324 325 325 325 325 326 328 330 329 329 333 333 332 331 335 336 340 341 340 340 340 341 340 339 337
311 311 313 316 319 320 316 312 312 312 318 319 320 321 320 324 325 326 324 321 325 325 325 325 325 326 324 326 332 332 333 332 332 331 336 338 340 340 343 344 342 339 339 337 334
311 311 313 316 320 321 316 316 316 317 321 315 317 320 323 325 326 326 326 322 324 325 328 325 328 330 331 329 331 331 332 332 331 330 335 336 337 336 336 332 332 336 337 334 330
310 312 314 318 321 319 317 309 319 315 313 316 319 320 321 323 323 322 324 324 325 326 327 326 329 329 329 329 331 332 332 332 330 331 335 337 338 337 337 335 333 333 333 334 330
310 313 320 322 321 316 315 313 317 317 312 317 319 321 321 321 320 320 324 325 327 327 327 327 328 330 330 329 330 331 332 332 331 329 335 337 337 338 336 337 335 335 333 332 330
310 313 318 323 322 320 318 320 322 314 319 324 323 323 320 319 320 321 324 326 327 327 325 326 326 330 328 329 329 331 329 330 329 329 330 332 333 333 335 336 334 335 337 333 331
310 312 317 322 322 318 319 323 318 318 331 329 324 323 318 320 321 322 323 325 326 327 326 327 330 330 329 329 328 328 330 331 330 328 330 331 330 331 334 335 339 342 342 335 332
310 312 319 321 321 317 322 323 320 324 332 329 325 323 321 320 320 320 323 323 324 325 324 325 325 326 328 327 328 329 330 325 323 324 330 330 331 328 335 334 334 338 338 337 336
310 316 321 322 317 323 322 318 320 327 326 329 325 321 325 328 322 322 326 328 326 323 322 322 324 323 328 329 327 326 324 328 330 331 331 332 334 332 333 335 331 336 337 337 336
311 322 324 324 319 321 322 318 325 325 329 328 330 329 332 332 331 332 331 330 327 325 324 327 327 331 330 329 328 328 325 328 334 337 335 334 339 337 335 333 333 334 334 334 336
315 326 325 322 319 322 317 321 321 325 329 327 326 326 325 332 332 330 330 330 330 327 327 329 331 333 332 331 329 331 332 328 335 337 338 335 336 332 334 333 335 335 334 335 336
317 327 329 319 321 321 318 321 324 325 325 325 325 325 325 328 332 331 332 333 337 336 328 333 337 334 334 332 331 330 331 335 334 340 342 338 341 338 336 336 333 335 333 331 329
321 326 325 320 321 315 319 320 322 323 323 324 325 324 324 327 332 332 332 336 338 338 333 334 333 335 334 334 334 334 333 333 331 331 336 337 338 331 332 334 333 331 331 330 327
314 331 323 320 316 314 317 320 321 322 322 325 323 323 325 326 327 327 334 338 336 336 337 335 334 339 336 333 333 333 334 332 335 334 335 334 335 333 331 329 332 333 331 329 327
315 319 330 320 316 316 316 321 323 322 325 326 327 326 327 331 331 337 340 337 335 337 334 333 334 336 332 331 334 335 335 331 330 330 335 337 335 331 330 330 330 332 331 330 327
322 338 329 319 313 325 329 338 324 325 326 329 330 330 330 334 333 337 339 337 335 336 338 331 332 333 336 333 335 338 337 335 331 333 334 335 334 336 333 328 323 326 327 329 328
326 334 331 332 333 336 335 335 329 332 329 328 330 333 332 337 336 338 337 335 336 336 334 330 333 336 336 338 339 340 340 339 336 334 338 337 335 333 332 326 320 321 320 322 320
314 325 320 328 332 336 331 335 336 336 330 328 332 334 333 336 335 337 339 336 337 334 333 330 332 337 340 337 334 337 337 340 340 339 338 336 335 330 326 316 316 320 320 319 316
311 315 321 327 334 336 334 334 337 335 334 333 331 333 334 336 333 332 331 331 333 332 334 335 336 335 337 336 337 341 341 340 338 335 336 336 329 324 320 317 316 315 317 317 314
Wind_Speed
20 20 18 14 11 7 4 3 3 3 3 3 4 4 6 7 7 7 8 7 12 10 5 9 7 8 8 3 3 3 2 4 4 3 4 1 4 2 2 7 4 6 5 4 27
20 20 19 16 12 8 5 4 3 3 3 3 4 4 6 8 6 11 15 11 12 10 7 10 4 9 3 4 4 4 2 6 6 1 2 5 3 4 4 4 3 2 4 18 29
19 19 19 18 14 10 7 5 3 3 3 3 4 4 6 7 2 7 6 17 16 13 4 6 6 5 3 4 4 6 6 5 7 7 6 6 10 6 5 4 7 11 8 16 23
19 18 18 18 17 12 8 5 4 4 4 4 4 5 5 2 6 2 2 13 18 10 6 2 2 3 4 4 5 1 7 4 7 5 3 4 2 7 6 3 5 6 13 16 13
20 19 19 18 19 14 9 7 5 4 4 4 5 5 1 0 8 2 10 12 19 13 8 5 4 3 4 3 1 5 4 6 7 10 8 3 7 4 1 4 10 16 14 14 13
23 20 19 18 19 16 10 7 6 5 4 4 4 4 1 2 4 8 4 13 13 16 7 8 4 6 5 4 5 6 6 9 4 8 5 3 4 4 4 4 14 16 15 11 10
25 22 20 20 19 17 11 7 5 5 4 4 4 2 0 9 2 12 3 8 14 10 5 10 4 0 5 5 3 2 1 4 5 2 4 2 4 5 6 5 10 11 12 12 9
28 24 22 22 20 18 10 6 5 4 4 4 3 1 6 2 7 11 4 7 11 12 16 8 4 4 2 6 7 5 5 5 6 3 4 0 1 4 2 4 7 10 10 6 2
30 27 24 24 21 17 9 5 4 2 3 2 1 1 7 6 5 10 11 8 7 11 12 12 3 2 5 4 6 6 3 4 7 3 2 6 0 1 4 3 6 6 4 5 5
33 30 27 25 22 17 8 2 2 2 0 2 1 2 6 4 4 4 10 15 3 5 5 3 5 3 4 5 2 5 3 4 6 5 5 3 2 2 6 5 6 5 4 5 4
36 33 28 25 21 15 4 1 3 1 3 8 5 3 4 3 2 4 4 5 2 3 1 3 5 3 4 5 5 3 3 6 7 4 5 4 2 6 3 2 4 7 2 4 5
39 35 28 25 21 13 4 2 2 1 6 10 9 6 9 3 4 6 6 5 5 6 3 5 2 9 8 6 5 4 6 9 7 5 5 1 3 6 6 4 4 5 5 6 7
41 34 29 24 17 3 1 5 2 15 1 6 6 5 5 10 6 9 8 4 5 5 5 5 7 7 5 5 2 2 3 5 8 3 5 5 5 4 4 3 7 5 5 5 7
42 33 32 22 2 5 5 3 16 10 4 5 3 7 5 5 4 9 12 7 2 10 5 5 4 8 6 7 6 3 7 7 6 2 4 4 4 4 3 5 5 6 4 7 6
43 39 31 17 8 2 2 17 2 3 3 1 3 2 5 8 3 3 6 4 10 7 6 12 5 7 6 13 3 10 2 3 2 3 3 1 3 5 2 3 0 4 6 5 3
43 43 26 8 5 6 12 7 5 5 3 6 5 3 4 1 2 4 2 2 4 6 5 10 2 7 10 9 6 6 1 4 3 4 1 4 5 5 5 5 2 1 6 7 4
46 35 14 6 2 1 12 3 5 3 5 9 2 4 4 3 3 5 2 4 0 2 4 4 4 4 4 3 3 5 6 3 3 2 6 1 1 8 4 4 6 8 7 5 6
47 18 8 7 3 3 3 5 2 2 5 5 3 4 3 4 3 2 2 3 0 2 1 1 6 2 0 3 6 3 7 5 7 4 5 1 5 6 3 4 6 10 8 6 9
42 11 6 2 10 1 6 3 6 5 3 6 4 6 5 2 1 1 3 2 2 1 5 2 4 3 3 0 3 2 3 1 6 4 2 4 5 7 7 8 6 7 8 8 8
24 12 5 4 12 5 5 5 4 4 6 1 4 5 2 3 1 3 2 2 1 4 1 4 1 2 3 3 4 4 4 3 3 3 4 3 4 6 5 9 8 8 8 6 5
8 3 10 11 2 5 3 6 5 7 4 3 4 3 3 3 1 2 3 2 3 2 5 3 3 5 1 1 4 2 2 5 4 3 4 2 6 6 9 9 11 9 9 10 8
7 3 5 1 4 1 2 4 5 7 6 9 5 5 2 2 0 3 2 4 7 3 2 3 4 4 8 2 5 3 4 4 4 3 2 3 7 3 7 6 9 10 11 8 8
2 3 5 3 2 3 6 5 5 5 6 1 6 5 4 4 4 3 1 4 4 1 5 3 1 3 9 6 1 4 4 3 5 3 6 4 6 2 3 2 6 9 8 9 9
2 3 4 4 0 3 4 5 6 5 3 5 3 3 5 4 5 2 2 3 0 1 1 5 4 8 7 7 3 4 6 6 5 3 4 6 6 5 7 6 7 6 7 8 7
3 1 1 3 4 4 2 2 4 5 5 5 5 4 4 3 2 2 3 3 3 5 3 2 5 5 5 7 5 5 7 7 8 6 5 5 7 7 11 8 8 8 7 7 7
3 3 4 3 5 5 1 2 4 5 5 4 6 2 4 4 5 5 3 2 3 2 2 4 3 3 4 4 4 6 6 10 10 9 6 5 9 5 5 5 6 9 9 8 7
6 4 2 4 4 3 2 3 5 6 5 3 8 4 5 1 2 3 5 5 3 3 2 3 3 4 5 4 7 3 5 5 2 2 4 3 2 2 4 7 8 8 9 10 8
Wind_Direction
13 11 11 8 2 355 346 336 328 330 329 327 326 319 308 303 293 257 235 212 213 184 164 139 164 180 171 238 153 126 51 284 252 277 315 345 139 115 121 121 186 187 145 209 162
9 9 9 6 1 353 337 322 323 325 320 317 322 317 315 311 288 248 231 211 204 200 194 162 172 168 211 205 179 148 160 234 262 58 298 0 341 174 137 131 239 138 68 136 149
6 6 6 5 359 352 336 317 313 317 320 322 319 315 316 316 269 242 227 216 214 213 135 156 180 180 207 179 187 170 207 231 268 242 238 273 273 194 140 234 209 202 138 146 156
3 2 2 1 359 350 337 316 307 310 319 321 317 318 313 275 167 179 323 201 214 200 189 173 115 159 230 207 173 178 260 203 268 228 218 245 219 181 169 348 339 83 134 146 141
2 360 358 358 357 349 334 316 308 309 315 317 320 325 296 264 253 255 342 194 193 194 205 195 196 186 281 233 30 215 232 219 249 299 285 290 244 103 81 23 102 108 118 141 155
4 359 355 354 355 350 333 317 309 306 306 307 317 330 3 269 313 317 327 179 178 194 205 183 202 209 267 245 148 224 199 245 340 301 272 265 46 60 281 144 111 119 133 135 160
4 0 354 351 351 351 337 316 305 299 299 304 313 318 141 238 245 3 183 189 197 202 210 225 180 100 331 287 221 281 267 298 256 248 299 117 36 358 348 15 94 116 128 161 173
2 359 353 349 347 347 338 314 301 297 295 292 287 220 247 262 286 275 251 225 226 235 246 268 217 226 184 302 13 24 43 16 298 4 319 264 129 313 240 148 141 149 157 172 117
0 356 352 347 344 344 334 313 292 288 296 311 92 101 270 299 251 250 221 229 247 245 258 273 302 38 14 41 15 13 300 332 308 144 179 30 136 232 255 196 167 83 122 203 214
358 353 348 344 342 341 336 303 248 257 176 91 314 355 272 233 202 215 238 235 321 345 335 94 54 57 44 59 299 304 337 290 261 320 49 71 254 208 227 263 84 157 226 267 253
356 349 346 342 338 335 321 141 17 339 192 198 193 256 292 344 173 244 224 161 97 332 220 33 71 162 212 200 216 216 207 256 262 315 78 10 347 314 332 305 50 138 131 343 304
353 348 344 341 334 319 275 158 184 295 310 230 243 268 270 336 330 280 206 149 132 221 119 28 179 221 215 229 232 210 297 292 289 61 81 234 306 304 328 321 348 355 325 277 299
351 348 346 341 331 330 278 249 153 311 295 291 199 198 205 160 219 262 134 167 175 218 217 171 222 217 199 272 340 238 219 261 236 5 37 112 327 325 330 320 292 278 216 241 233
350 348 343 344 21 328 277 334 333 160 51 276 234 261 158 147 280 227 183 152 201 209 157 223 251 215 222 261 171 258 216 241 260 173 253 168 259 278 241 307 312 355 30 228 213
347 344 336 333 296 238 325 330 82 112 55 196 200 179 154 159 206 324 153 88 199 199 122 241 206 209 218 228 188 243 30 258 284 191 119 189 108 255 275 147 119 54 45 18 188
344 339 328 317 260 248 329 349 115 37 356 322 152 150 137 79 325 331 131 60 198 202 226 237 220 165 223 253 204 226 125 64 69 91 2 232 148 267 195 162 170 125 88 99 96
341 334 308 236 240 234 336 55 41 121 320 324 259 133 122 242 199 186 261 341 256 131 267 324 259 255 161 230 38 68 52 342 327 336 227 285 29 235 206 156 191 168 124 110 134
340 337 317 239 171 302 55 52 156 252 263 313 36 72 80 13 14 86 82 352 237 106 107 178 333 350 293 187 201 175 159 163 227 209 241 66 240 255 179 97 98 120 121 140 148
342 338 320 1 181 128 73 87 213 213 290 318 0 60 345 315 79 117 151 212 283 266 154 145 269 307 78 293 91 238 242 189 100 357 37 237 294 313 87 93 114 121 115 148 160
341 331 334 94 133 88 76 226 232 226 328 14 149 175 179 317 92 35 350 130 125 345 266 191 230 6 330 40 71 152 152 73 14 172 253 290 280 237 180 170 159 155 151 185 206
345 19 352 150 60 50 153 236 270 254 69 347 269 244 148 161 167 233 232 75 4 334 42 135 130 269 23 118 203 10 323 56 126 144 195 275 259 212 197 172 170 176 181 187 191
350 53 21 30 48 40 163 222 284 279 308 241 193 182 126 131 5 328 1 345 344 306 22 33 133 222 229 184 158 175 204 160 135 256 232 175 270 265 183 181 171 175 186 196 204
6 273 28 337 85 344 297 283 248 318 296 66 37 67 36 33 88 73 234 222 343 3 180 179 282 339 334 354 40 203 182 161 117 133 201 163 266 347 153 161 174 166 183 195 210
12 11 334 44 100 117 341 290 330 291 283 46 129 95 93 48 10 143 232 258 119 236 29 103 177 190 225 217 176 238 214 189 157 150 188 221 271 267 202 192 175 169 197 201 205
19 339 167 329 319 355 242 284 298 342 353 52 29 25 120 58 21 281 224 273 188 39 24 124 231 199 253 254 238 238 242 223 203 217 182 247 218 242 205 186 190 183 178 193 214
53 15 350 277 304 322 14 336 310 331 5 327 123 144 101 133 195 239 239 193 292 43 10 7 293 342 269 191 294 266 259 248 242 229 247 276 266 214 122 117 146 180 182 187 201
2 351 97 276 331 1 318 295 287 314 332 31 147 99 55 1 114 100 95 98 108 108 39 23 4 7 272 328 296 224 347 17 344 351 196 183 256 91 118 168 187 190 189 193 185